sat.trackr.live / text

‹ back to catalog

STARLINK-11389 [DTC]

NORAD 62091 · 2024-220D

PAYLOAD ACTIVE UNKNOWN

§ Identity

Operator
Country
US
Launch date
2024-11-25
Launch site
AFETR
Launch vehicle
Mass (kg)
RCS (m²)

Purposes: comms

External: N2YO · Heavens-Above · Gunter

§ Orbital elements

Epoch: 2026-09-21T09:54:08.700480Z

Period
91.67 min
Inclination
42.9977°
Eccentricity
0.0000305
Mean motion
15.70871217 rev/d
Perigee alt
356.2 km
Apogee alt
356.6 km
Semi-major
6,734.5 km
B*
8.4250e-4
RAAN
303.4690°
Arg perigee
209.7027°
Mean anomaly
150.3824°
Rev number
10,573

§ Raw data

STARLINK-11389 [DTC]1 62091U 24220D   26264.41260070  .00109229  00000+0  84250-3 0  99922 62091  42.9977 303.4690 0000305 209.7027 150.3824 15.70871217105736

JSON: /api/v1/satellites/62091 · /tle

For live sub-satellite position, see the globe view (requires WebGL).

§ Visibility from observer

Set your observer location to see the next 7 days of passes ≥ 10°. The values pass through the URL so the page stays shareable.

No JS? Fill the form by hand. The geolocation button needs JavaScript.